[[{"header":{"parameterUnit":"m.s-1","parameterCategory":1,"la1":30.2991,"la2":30.254,"lo1":-89.0895,"lo2":-89.0444,"dy":0.0017,"dx":0.0017,"nx":28,"ny":28,"refTime":"2025-05-27T03:00:00:Z","depth":0,"parameterNumber":2,"parameterNumberName":"U-component_of_WINDS"},"data":[0,0,0,0,0,0,0,0,0,0,0,0,0,0,0,0,0,0,0,0,0,0,0,0,0,0,0,0,0,0,0,0,0,0,0,0,0,0,0,0,0,0,0,0,0,0,0,0,0,0,0,0,0,0,0,0,0,0,-0.0883,-0.0882,0,-0.0836,-0.0836,-0.0835,-0.0885,-0.0887,-0.0889,-0.0891,-0.0833,-0.083,-0.0827,0,0,0,0,0,0,0,0,0,0,0,0,0,-0.1009,-0.1006,-0.0883,-0.0882,-0.0882,-0.0836,-0.0835,-0.0835,-0.0885,-0.0887,-0.0889,-0.0891,-0.0834,-0.083,-0.0826,0,0,0,0,0,0,0,0,0,0,0,0,0,-0.0957,-0.1005,-0.0883,-0.0901,-0.0902,-0.0836,-0.0835,-0.0835,-0.0884,-0.0887,-0.089,-0.0893,-0.0836,-0.0831,-0.0826,-0.0737,0,0,-0.0811,-0.0808,0,0,0,0,0,0,0,0,-0.096,-0.0952,-0.0899,-0.09,-0.0901,-0.087,-0.0859,-0.0801,-0.0883,-0.0891,-0.0891,-0.0894,-0.0842,-0.0837,-0.0821,-0.0734,-0.0731,-0.081,-0.0807,-0.0805,-0.0804,0,0,0,0,0,0,0,-0.0963,-0.0954,-0.0864,-0.0898,-0.0899,-0.091,-0.0906,-0.0848,-0.085,-0.089,-0.0894,-0.0888,-0.0843,-0.0826,-0.082,-0.0731,-0.081,-0.0806,-0.0803,-0.0801,-0.0569,-0.0566,0,0,0,0,0,0,-0.0966,-0.0957,-0.0865,-0.0863,-0.0939,-0.0905,-0.09,-0.0876,-0.0851,-0.085,-0.0886,-0.0891,-0.0833,-0.0826,-0.0819,-0.0713,-0.0805,-0.08,-0.0797,-0.0572,-0.0568,-0.0565,0,0,0,0,0,0,-0.0968,-0.0957,-0.0867,-0.0911,-0.09,-0.09,-0.0872,-0.0874,-0.0857,-0.0848,-0.0848,-0.0868,-0.0835,-0.0826,-0.0758,-0.0712,-0.0798,-0.0793,-0.0576,-0.0571,-0.0567,-0.0501,0,0,0,0,0,0,-0.0972,-0.0958,-0.0925,-0.091,-0.0898,-0.0809,-0.087,-0.0871,-0.0849,-0.0855,-0.0831,-0.083,-0.0837,-0.0765,-0.0753,-0.0706,-0.079,-0.058,-0.0574,-0.0568,-0.0507,-0.0494,-0.0483,0,0,0,0,0,-0.0976,-0.0906,-0.0923,-0.0912,-0.0857,-0.0806,-0.0799,-0.0811,-0.0845,-0.0812,-0.0807,-0.0831,-0.072,-0.0758,-0.0744,-0.0696,-0.0583,-0.0575,-0.0569,-0.0512,-0.0497,-0.0484,0,0,0,0,0,0,-0.0911,-0.0904,-0.0923,-0.0846,-0.0827,-0.0815,-0.0772,-0.0794,-0.0761,-0.0768,-0.0782,-0.0776,-0.0704,-0.0693,-0.0736,-0.0609,-0.0656,-0.0646,-0.0618,-0.0603,-0.0592,-0.0595,-0.0785,0,0,0,0,0,-0.0889,-0.085,-0.0845,-0.0778,-0.0768,-0.0772,-0.075,-0.0761,-0.074,-0.0731,-0.0721,-0.0697,-0.0657,-0.063,-0.0593,-0.0507,-0.0502,-0.0467,-0.0455,-0.0446,-0.0436,-0.039,-0.0375,-0.0542,-0.0542,-0.0542,0,0,-0.084,-0.0832,-0.0805,-0.0765,-0.0751,-0.0709,-0.0764,-0.0716,-0.0685,-0.0723,-0.0659,-0.0651,-0.0626,-0.0549,-0.0514,-0.0537,-0.039,-0.0437,-0.0429,-0.0424,-0.0381,-0.0366,-0.0352,-0.0537,-0.0538,-0.0539,0,0,-0.073,-0.0721,-0.0664,-0.0651,-0.0631,-0.0635,-0.0622,-0.0607,-0.0604,-0.0541,-0.057,-0.0531,-0.0462,-0.0443,-0.0424,-0.0313,-0.0333,-0.03,-0.0237,-0.0193,-0.018,-0.0168,-0.0127,-0.0112,-0.0291,-0.029,-0.029,0,-0.0671,-0.0611,-0.0631,-0.0583,-0.0564,-0.0602,-0.0544,-0.0529,-0.0496,-0.0481,-0.0509,-0.0425,-0.0411,-0.033,-0.0304,-0.0288,-0.0271,-0.0301,-0.0181,-0.0169,-0.0158,-0.0119,-0.0104,-0.0286,-0.0287,-0.0287,-0.0288,0,-0.054,-0.0498,-0.0455,-0.0427,-0.0403,-0.035,-0.036,-0.0334,-0.0349,-0.0349,-0.0285,-0.027,-0.0231,-0.0213,-0.0225,-0.0135,-0.015,-0.0179,-0.0227,-0.0138,-0.0102,-0.0087,-0.0281,-0.0282,-0.0283,-0.0284,0,0,-0.0383,-0.0371,-0.0354,-0.0343,-0.0326,-0.0293,-0.0242,-0.0208,-0.0185,-0.0162,-0.0119,-0.0062,-0.009,-0.0068,-0.0079,-0.0041,0.0047,-0.0074,-0.0074,-0.0051,0.0148,0.0171,0.0189,0.0032,0.0034,0.0037,0.0147,0,-0.0272,-0.0187,-0.0205,-0.012,-0.0082,-0.0119,-0.0075,-0.0059,-0.0059,-0.0025,-0.0024,0.0017,-0.0024,-0.0011,0.0025,0.0029,0.0088,0.002,0.0075,0.0077,0.0072,0.0208,0.0233,0.0336,0.0161,0.0163,0.0165,0,-0.013,-0.0107,-0.0019,-0.0011,0.0004,0.0044,0.0073,0.0105,0.0122,0.0119,0.014,0.0121,0.0173,0.0121,0.0194,0.0148,0.0169,0.0174,0.0178,0.0185,0.0128,0.022,0.0369,0.0385,0.0187,0.0185,0.0183,0,-0.0023,0.003,0.0089,0.0099,0.011,0.0139,0.0145,0.0159,0.018,0.0205,0.0219,0.0252,0.027,0.0297,0.0287,0.025,0.0362,0.031,0.0363,0.0363,0.0391,0.039,0.0547,0.04,0.04,0.04,0.0399,0,0.0104,0.016,0.0136,0.0173,0.0234,0.0212,0.0274,0.0276,0.0287,0.0325,0.0295,0.0331,0.0315,0.0351,0.0343,0.0404,0.0413,0.0414,0.0412,0.0418,0.0418,0.0433,0.0427,0.0404,0.0403,0.0402,0.0401,0,0.0236,0.0222,0.0284,0.0286,0.0288,0.0333,0.0337,0.0372,0.0366,0.0414,0.0424,0.0418,0.0458,0.045,0.0495,0.049,0.0567,0.0555,0.0561,0.0559,0.0613,0.0608,0.0787,0.081,0.0647,0.0648,0.065,0,0.0319,0.036,0.0365,0.0386,0.0394,0.0429,0.0448,0.0428,0.045,0.047,0.0503,0.0539,0.0567,0.0633,0.0634,0.0668,0.0658,0.0718,0.0664,0.0668,0.0661,0.066,0.0664,0.0731,0.0733,0.0734,0.0735,0,0.0469,0.0459,0.0487,0.0512,0.0535,0.0555,0.0572,0.0592,0.0572,0.0599,0.0637,0.0658,0.0701,0.0738,0.0769,0.0777,0.0755,0.0751,0.0766,0.0774,0.0776,0.0777,0.0592,0.0749,0.0747,0.0746,0.0746,0.0745,0.058,0.0614,0.0622,0.0654,0.0663,0.0679,0.0711,0.0708,0.0738,0.077,0.0755,0.08,0.0814,0.0852,0.0863,0.0899,0.0877,0.0898,0.0903,0.0909,0.0916,0.0767,0.0904,0.0904,0.0904,0.0903,0.0903,0,0.0729,0.0731,0.076,0.0783,0.0808,0.0777,0.0794,0.0818,0.0856,0.0869,0.0895,0.0939,0.0973,0.0975,0.1008,0.1036,0.1026,0.1046,0.1045,0.1048,0.0934,0.0918,0.1053,0.1053,0.1053,0.1053,0.1053,0.1053,0.081,0.0866,0.0856,0.0916,0.0918,0.0958,0.097,0.0985,0.0995,0.1044,0.107,0.1069,0.1079,0.1111,0.1142,0.1141,0.1156,0.118,0.1176,0.1071,0.1056,0.1042,0.1027,0.1183,0.1183,0.1287,0.1288,0.1289]},{"header":{"parameterUnit":"m.s-1","parameterCategory":1,"la1":30.2991,"la2":30.254,"lo1":-89.0895,"lo2":-89.0444,"dy":0.0017,"dx":0.0017,"nx":28,"ny":28,"refTime":"2025-05-27T03:00:00:Z","depth":0,"parameterNumber":3,"parameterNumberName":"V-component_of_WINDS"},"data":[0,0,0,0,0,0,0,0,0,0,0,0,0,0,0,0,0,0,0,0,0,0,0,0,0,0,0,0,0,0,0,0,0,0,0,0,0,0,0,0,0,0,0,0,0,0,0,0,0,0,0,0,0,0,0,0,0,0,4.776,4.776,0,4.7817,4.7817,4.7818,4.7713,4.7709,4.7706,4.7702,4.7757,4.7761,4.7766,0,0,0,0,0,0,0,0,0,0,0,0,0,4.7555,4.7559,4.776,4.776,4.7761,4.7817,4.7817,4.7818,4.7713,4.7709,4.7705,4.7701,4.7755,4.7761,4.7766,0,0,0,0,0,0,0,0,0,0,0,0,0,4.7631,4.7561,4.776,4.7716,4.7712,4.7816,4.7817,4.7818,4.7714,4.7709,4.7704,4.7699,4.7753,4.776,4.7767,4.7916,0,0,4.7789,4.7792,0,0,0,0,0,0,0,0,4.7627,4.7639,4.7721,4.7719,4.7715,4.7752,4.7765,4.7851,4.7715,4.7713,4.7702,4.7696,4.7759,4.7766,4.7788,4.7918,4.792,4.7789,4.7794,4.7797,4.7799,0,0,0,0,0,0,0,4.7622,4.7636,4.7782,4.7723,4.7719,4.7691,4.7696,4.7781,4.7765,4.7713,4.7706,4.7714,4.7757,4.7781,4.7788,4.7921,4.7789,4.7795,4.78,4.7803,4.8175,4.818,0,0,0,0,0,0,4.7623,4.7632,4.778,4.7784,4.7657,4.7699,4.7705,4.7746,4.7764,4.7761,4.7718,4.7709,4.7772,4.778,4.779,4.7964,4.7797,4.7803,4.7807,4.8169,4.8176,4.8182,0,0,0,0,0,0,4.7619,4.7637,4.7778,4.7706,4.7722,4.7708,4.7755,4.775,4.7774,4.7768,4.7764,4.7747,4.7768,4.778,4.7885,4.7965,4.7806,4.7813,4.8163,4.8172,4.8179,4.8315,0,0,0,0,0,0,4.7613,4.7636,4.7694,4.7708,4.7726,4.7875,4.776,4.7754,4.7787,4.7775,4.7793,4.7791,4.7765,4.7875,4.7892,4.7971,4.7818,4.8156,4.8167,4.8177,4.8303,4.8327,4.8347,0,0,0,0,0,4.7606,4.7729,4.7697,4.7716,4.7798,4.7879,4.7889,4.7857,4.7794,4.7851,4.7846,4.7791,4.7953,4.7887,4.7905,4.7988,4.815,4.8163,4.8176,4.8294,4.8323,4.8347,0,0,0,0,0,0,4.7723,4.773,4.7695,4.7826,4.7853,4.7861,4.7932,4.7889,4.7934,4.792,4.7877,4.7882,4.7996,4.8002,4.7928,4.8132,4.8041,4.8058,4.8124,4.8151,4.8173,4.8169,4.7824,0,0,0,0,0,4.7764,4.7832,4.7833,4.7949,4.7964,4.7946,4.798,4.7953,4.7979,4.7989,4.7993,4.8019,4.8075,4.8113,4.8165,4.8303,4.8305,4.8369,4.8391,4.8409,4.8424,4.8497,4.8525,4.8224,4.8224,4.8224,0,0,4.785,4.7862,4.7907,4.7972,4.799,4.8059,4.7956,4.8034,4.8084,4.8,4.8101,4.8104,4.813,4.8252,4.8306,4.8261,4.8508,4.8425,4.844,4.8445,4.8513,4.8542,4.8567,4.8233,4.8231,4.823,0,0,4.8041,4.8057,4.8155,4.8175,4.8204,4.8191,4.8214,4.8229,4.8229,4.8329,4.8267,4.8325,4.8424,4.8445,4.8468,4.8666,4.8617,4.8684,4.8799,4.8871,4.8895,4.8916,4.8986,4.9012,4.8699,4.87,4.87,0,4.8144,4.8247,4.8211,4.8293,4.8323,4.8251,4.8349,4.837,4.8413,4.8435,4.8383,4.8505,4.8517,4.8643,4.8692,4.8713,4.8738,4.8682,4.8894,4.8915,4.8934,4.9001,4.9027,4.8708,4.8707,4.8706,4.8705,0,4.8371,4.8443,4.8518,4.8564,4.8602,4.8692,4.8668,4.8711,4.868,4.8672,4.8774,4.8786,4.8839,4.8866,4.8836,4.8988,4.8959,4.8902,4.881,4.8971,4.9033,4.9059,4.8719,4.8716,4.8714,4.8712,0,0,4.8639,4.8663,4.8691,4.871,4.8736,4.879,4.8875,4.8928,4.8966,4.8997,4.9067,4.9152,4.9099,4.9126,4.9097,4.916,4.9316,4.9095,4.9094,4.9136,4.9483,4.9527,4.9557,4.9283,4.9287,4.9291,4.9481,0,4.8829,4.8978,4.8948,4.9093,4.9159,4.9091,4.9165,4.9188,4.9182,4.9236,4.9228,4.929,4.9215,4.9231,4.929,4.9285,4.9385,4.927,4.9346,4.935,4.9343,4.959,4.9636,4.9815,4.9505,4.9509,4.9512,0,4.9071,4.9113,4.9266,4.9281,4.9307,4.9375,4.942,4.9472,4.9496,4.9487,4.9517,4.9476,4.9559,4.9466,4.9579,4.9502,4.953,4.9532,4.9538,4.9545,4.9442,4.9603,4.9871,4.9899,4.955,4.9547,4.9544,0,4.9251,4.9346,4.945,4.9468,4.9488,4.9537,4.9547,4.9565,4.9599,4.9638,4.9659,4.9707,4.9733,4.977,4.9742,4.9677,4.986,4.9764,4.9855,4.9856,4.9897,4.9895,5.0174,4.9915,4.9915,4.9914,4.9914,0,4.9467,4.9563,4.9531,4.9595,4.97,4.9663,4.9767,4.9769,4.9786,4.9848,4.9791,4.9849,4.9809,4.9864,4.9843,4.994,4.9952,4.9946,4.994,4.9952,4.9953,4.9971,4.9958,4.9921,4.992,4.9918,4.9917,0,4.9687,4.9669,4.9778,4.9788,4.9792,4.9869,4.9876,4.9935,4.9924,5.0003,5.0019,5.0003,5.0065,5.0041,5.0106,5.0091,5.0215,5.0192,5.0208,5.0203,5.0294,5.0286,5.0596,5.0634,5.035,5.0353,5.0355,0,4.9827,4.9899,4.9917,4.9955,4.997,5.0031,5.0065,5.0031,5.0068,5.01,5.0155,5.0211,5.0255,5.0356,5.035,5.0399,5.0376,5.0481,5.0383,5.0393,5.0378,5.0375,5.0382,5.0501,5.0505,5.0507,5.0509,0,5.0076,5.0064,5.0116,5.0165,5.0208,5.0245,5.0276,5.031,5.0276,5.0321,5.0384,5.0418,5.0485,5.0542,5.0586,5.0594,5.0547,5.054,5.0564,5.0578,5.0584,5.0582,5.0262,5.0534,5.0531,5.0529,5.0528,5.0527,5.026,5.0321,5.0344,5.0403,5.0423,5.0454,5.051,5.0507,5.0559,5.0612,5.0587,5.066,5.068,5.0734,5.0749,5.0804,5.0763,5.0797,5.0806,5.0815,5.0828,5.0575,5.0812,5.0811,5.0811,5.081,5.0809,0,5.0507,5.0518,5.0573,5.062,5.0666,5.0618,5.065,5.0692,5.0758,5.0781,5.0826,5.0897,5.0952,5.0949,5.1,5.1044,5.1024,5.1059,5.1055,5.1058,5.0861,5.0836,5.1075,5.1075,5.1074,5.1074,5.1074,5.1074,5.0641,5.0742,5.0732,5.0842,5.0851,5.0924,5.0946,5.0973,5.0992,5.1075,5.1121,5.1119,5.1132,5.1182,5.123,5.1227,5.1248,5.1292,5.1282,5.1098,5.1072,5.1047,5.1023,5.1297,5.1297,5.1473,5.1475,5.1476]}]]